SCP
0 0 0 0 0 0 0 0 0 0 0 0 0 0 0 0 0 0 0 0 0 0 0 0 0 0 0 0 0 0 0 0 0 0 0 0 0 0 0 0 0 0 0
0 0 0 0 0 0 0 0 0 0 0 0 0 0 0 0 0 0 0 0 0 0 0 0 0 0 0 0 0 0 0 0 0 0 0 0 0 0 0 0 0 0 0
0 0 0 0 0 0 0 0 0 0 0 0 0 0 0 0 0 0 0 0 0 0 0 0 0 0 0 0 0 0 0 0 0 0 0 0 0 0 0 0 0 0 0
0 0 0 0 0 0 0 0 0 0 0 0 0 0 0 0 0 0 0 0 0 0 0 0 0 0 0 0 0 0 0 0 0 0 0 0 0 0 0 0 0 0 0
0 0 0 0 0 0 0 0 0 0 0 0 0 0 0 0 0 0 0 0 0 0 0 0 0 0 0 0 0 0 0 0 0 0 0 0 0 0 0 0 0 0 0
0 0 0 0 0 0 0 0 0 0 0 0 0 0 0 0 0 0 0 0 0 0 0 0 0 0 0 0 0 0 0 0 0 0 0 0 0 0 0 0 0 0 0
0 0 0 0 0 0 0 0 0 0 0 0 -0 0 0 0 0 0 0 0 0 0 0 0 0 0 0 0 0 0 0 0 0 0 0 0 0 0 0 0 0 0 0
0 0 0 0 0 0 0 0 0 0 0 0 0 0 0 0 0 0 0 0 0 0 0 0 0 0 0 0 0 0 0 0 0 0 0 0 0 0 0 0 0 0 0
0 0 0 0 0 0 0 0 0 0 0 0 0 0 0 0 0 0 0 0 0 0 0 0 0 0 0 0 0 0 0 0 0 0 0 0 0 0 0 0 0 0 0
0 0 0 0 0 0 0 0 0 0 0 0 0 0 0 0 0 0 0 0 0 0 0 0 0 0 0 0 0 0 0 0 0 0 0 0 0 0 0 0 0 0 0
0 0 0 0 0 0 0 0 0 0 0 0 0 0 0 0 0 0 0 0 0 0 0 0 0 0 0 0 0 0 0 0 0 0 0 0 0 0 0 0 0 0 0
0 0 0 0 0 0 0 0 0 0 0 0 0 0 0 0 0 0 0 0 0 0 0 0 0 0 0 0 0 0 0 0 0 0 0 0 0 0 0 0 0 0 0
0 0 0 0 0 0 0 0 0 0 0 0 0 0 0 0 0 0 0 0 0 0 0 0 0 0 0 0 0 0 0 0 0 0 0 0 0 0 0 0 0 0 0
0 0 0 0 0 0 0 0 0 0 0 0 0 0 0 0 0 0 0 0 0 0 0 0 0 0 0 0 0 0 0 0 0 0 0 0 0 0 0 0 0 0 0
0 0 0 0 0 0 0 0 0 0 0 0 0 0 0 0 0 0 0 0 0 0 0 0 0 0 0 0 0 0 0 0 0 0 0 0 0 0 0 0 0 0 0
0 0 0 0 0 0 0 0 0 0 0 0 0 0 0 0 0 0 0 0 0 0 0 0 0 0 0 0 0 0 0 0 0 0 0 0 0 0 0 0 0 0 0
0 0 0 0 0 0 0 0 0 0 0 0 0 0 0 0 0 0 0 0 0 0 0 0 0 0 0 0 0 0 0 0 0 0 0 0 0 0 0 0 0 0 0
0 0 0 0 0 0 0 0 0 0 0 0 0 0 0 0 0 0 0 0 0 0 0 0 0 0 0 0 0 0 0 0 0 0 0 0 0 0 0 0 0 0 0
0 0 0 0 0 0 0 0 0 0 0 0 0 0 0 0 0 0 0 0 0 0 0 0 0 0 0 0 0 0 0 0 0 0 0 0 0 0 0 0 0 0 0
0 0 0 0 0 0 0 0 0 0 0 0 0 0 0 0 0 0 0 0 0 0 0 0 0 0 0 0 0 0 0 0 0 0 0 0 0 0 0 0 0 0 0
0 0 0 0 0 0 0 0 0 0 0 0 0 0 0 0 0 0 0 0 0 0 0 0 0 0 0 0 0 0 0 0 0 0 0 0 0 0 0 0 0 0 0
0 0 0 0 0 0 0 0 0 0 0 0 0 0 0 0 0 0 0 0 0 0 0 0 0 0 0 0 0 0 0 0 0 0 0 0 0 0 0 0 0 0 0
0 0 0 0 0 0 0 0 0 0 0 0 0 0 0 0 0 0 0 0 0 0 0 0 0 0 0 0 0 0 0 0 0 0 0 0 0 0 0 0 0 0 0
0 0 0 0 0 0 0 0 0 0 0 0 0 0 0 0 0 0 0 0 0 0 0 0 0 0 0 0 0 0 0 0 0 0 0 0 0 0 0 0 0 0 0
0 0 0 0 0 0 0 0 0 0 0 0 0 0 0 0 0 0 0 0 0 0 0 0 0 0 0 0 0 0 0 0 0 0 0 0 0 0 0 0 0 0 0
0 0 0 0 0 0 0 0 0 0 0 0 0 0 0 0 0 0 0 0 0 0 0 0 0 0 0 0 0 0 0 0 0 0 0 0 0 0 0 0 0 0 0
Wind_Speed
12 12 12 12 11 10 9 7 5 4 3 2 2 3 4 5 5 6 9 10 11 11 11 10 11 11 10 12 14 12 13 12 10 10 11 13 16 17 15 14 14 16 17
11 12 12 12 12 11 9 8 6 4 3 1 1 2 3 4 5 5 7 9 10 11 10 12 11 11 10 13 14 13 11 10 9 8 9 9 10 13 13 13 13 15 14
10 10 11 12 11 11 9 7 6 4 2 1 1 1 2 3 4 5 5 7 9 11 11 13 12 12 12 11 13 13 14 12 10 10 10 9 9 7 7 11 11 13 12
9 9 10 10 10 9 7 7 6 5 3 1 1 3 3 5 5 5 5 7 8 10 10 12 13 13 11 13 13 13 12 13 12 11 12 13 11 10 9 7 9 12 13
8 8 8 8 8 8 7 6 6 6 4 2 1 3 5 5 6 6 8 8 7 8 10 11 11 12 11 13 14 14 14 12 13 12 11 12 13 15 12 14 13 12 11
7 7 7 7 7 7 6 6 6 6 5 3 3 4 6 7 8 9 8 7 7 7 9 9 10 11 11 12 13 14 15 14 15 13 12 12 11 11 13 15 15 14 13
6 6 6 6 6 6 6 5 6 5 5 4 4 5 6 8 9 9 9 9 8 8 9 9 10 10 11 12 13 13 14 15 17 16 13 13 14 13 13 14 15 17 14
5 5 5 4 4 5 5 5 5 5 5 5 6 6 7 6 6 9 9 10 9 9 11 11 12 13 13 13 13 12 14 14 16 17 17 14 13 13 13 14 14 16 15
5 4 4 3 3 4 5 5 5 5 6 7 7 8 8 8 9 10 10 9 10 10 12 13 13 13 14 14 14 12 15 15 15 16 17 15 13 13 13 13 13 14 16
4 4 3 2 3 3 4 4 5 6 7 7 7 7 9 10 10 11 12 12 13 12 13 14 14 14 14 15 14 14 14 16 15 13 16 16 13 13 13 13 13 14 15
4 3 2 2 2 3 4 5 6 7 8 8 9 10 10 11 11 11 12 13 13 14 14 15 15 15 15 15 15 16 16 17 17 16 17 18 17 14 13 13 13 14 14
3 2 1 1 2 4 5 6 7 8 8 9 10 11 12 12 12 13 14 14 15 14 15 15 16 16 16 16 16 17 17 18 18 18 18 18 14 17 14 13 15 14 14
3 1 0 2 4 5 6 7 8 9 9 10 12 13 13 13 14 14 15 15 15 16 16 16 16 17 16 16 16 17 17 18 18 18 18 17 17 17 14 15 14 13 13
2 1 2 4 5 6 7 8 10 10 10 11 13 13 14 14 15 15 15 15 16 16 16 16 17 17 17 16 16 16 17 18 18 18 17 17 17 17 17 14 16 14 14
1 2 4 5 6 7 8 9 11 11 12 13 13 14 15 15 15 15 16 16 16 16 17 17 17 17 15 13 14 15 17 18 18 18 17 17 19 22 20 15 13 13 13
2 4 5 7 8 9 10 11 12 12 13 14 14 15 15 15 15 16 16 17 17 17 17 17 17 17 14 18 23 21 17 17 17 17 17 17 19 22 27 29 27 23 16
3 5 6 7 8 10 11 12 13 13 13 14 15 15 15 16 16 16 17 17 18 17 17 17 17 18 18 22 24 25 20 18 17 17 15 13 13 19 15 19 24 24 26
5 6 7 8 9 10 11 12 13 14 14 15 15 15 15 16 17 17 18 18 17 16 16 17 17 17 18 23 24 25 19 17 16 16 15 15 15 14 16 14 14 15 16
5 6 8 9 11 11 12 13 14 14 15 15 16 16 16 17 18 18 18 17 17 17 16 16 17 18 18 22 23 23 15 13 15 15 14 14 14 19 23 16 14 15 14
5 7 8 10 11 12 13 14 15 16 16 16 16 17 17 17 18 18 18 17 16 16 16 16 17 18 18 20 23 23 12 13 13 12 12 17 18 20 22 14 12 14 13
7 8 9 10 12 13 13 15 16 16 16 16 17 17 17 17 18 18 17 17 16 16 17 17 16 16 17 19 22 22 13 11 12 11 10 10 18 21 21 19 13 15 14
8 9 10 12 12 13 14 16 17 17 17 17 17 18 18 16 14 17 17 16 16 16 16 15 15 12 13 15 18 22 21 19 14 11 10 11 19 21 21 17 16 19 16
9 10 12 13 13 14 14 17 17 17 17 17 18 18 18 16 16 16 17 15 14 12 12 12 13 12 11 12 19 21 22 22 15 11 17 20 22 20 16 16 19 15 9
10 11 13 14 15 15 15 16 17 17 17 18 18 17 16 16 16 13 12 12 12 12 12 13 13 13 12 11 10 11 12 15 13 11 15 20 19 15 15 14 11 8 7
11 11 12 14 16 16 17 16 16 16 17 18 17 16 15 15 14 14 12 14 13 14 15 13 12 13 13 14 21 18 13 12 12 14 10 9 9 8 7 7 7 6 6
12 12 14 15 17 17 17 17 16 16 16 15 15 13 12 13 13 13 14 16 18 22 24 23 20 16 19 24 25 25 24 24 22 16 10 9 9 8 8 8 7 6 6
Wind_Direction
64 58 57 60 66 69 74 82 96 115 144 165 200 226 239 245 246 249 255 254 254 251 248 252 257 254 250 250 253 255 256 255 256 265 267 259 250 246 245 243 244 243 239
73 63 60 60 61 63 66 73 81 97 128 166 210 253 273 275 274 266 262 259 257 255 253 253 255 255 253 254 255 254 255 256 245 246 270 277 267 241 233 237 239 242 240
81 72 65 62 61 58 56 61 68 78 92 150 226 253 262 268 263 268 268 266 263 259 255 255 257 257 254 254 254 251 247 250 247 232 243 263 269 292 241 232 238 239 239
91 81 72 65 59 57 58 61 66 69 74 112 263 277 286 291 299 299 288 283 272 265 261 260 259 260 257 256 255 251 248 248 251 246 234 243 265 276 282 245 235 241 244
101 89 78 73 66 61 58 59 62 61 58 42 331 297 295 299 301 300 293 292 284 272 266 264 263 261 258 257 257 256 251 244 245 247 245 242 247 249 257 269 266 253 243
114 101 94 87 76 66 59 54 53 49 38 19 345 317 310 308 306 305 303 300 293 285 276 270 265 263 261 260 258 257 254 250 249 247 246 246 243 240 244 257 264 265 261
130 116 106 91 75 61 51 45 40 33 21 4 343 326 314 308 303 306 304 301 297 293 291 284 275 271 265 263 262 260 257 254 252 250 248 246 246 248 252 259 266 269 267
138 123 108 94 76 57 43 34 25 14 2 348 336 325 317 307 303 303 300 296 293 293 295 290 282 278 275 270 264 262 258 256 254 253 251 250 249 247 246 250 261 269 269
148 134 118 98 72 49 31 15 4 356 348 337 326 321 318 311 306 302 298 293 291 293 292 290 286 282 278 274 271 265 263 260 257 256 254 252 251 249 249 248 247 255 268
153 142 125 95 60 32 10 356 348 339 331 326 323 314 311 309 305 300 298 296 295 294 292 291 289 286 282 278 273 270 267 267 264 261 260 257 255 252 249 248 247 245 252
157 150 129 83 32 0 347 342 336 328 324 322 318 313 312 309 305 300 299 298 296 294 292 291 289 287 285 283 279 273 272 270 269 265 261 259 258 257 254 250 248 246 245
148 143 122 28 347 340 337 334 328 324 322 318 313 311 309 306 303 302 302 300 297 295 293 291 289 287 285 283 281 280 277 275 273 270 267 265 263 259 257 254 251 249 246
150 151 348 331 332 331 329 326 323 321 318 315 310 308 307 306 305 304 303 301 298 295 294 291 289 288 287 285 282 281 280 277 275 273 270 268 266 262 258 256 255 253 251
168 322 326 326 328 324 322 320 320 319 316 312 308 307 307 306 305 303 302 299 298 296 295 293 290 288 286 283 281 281 280 278 276 273 270 268 265 263 260 257 256 255 254
237 311 319 321 319 319 318 319 316 315 314 310 307 306 306 305 303 302 301 300 298 296 294 292 290 288 286 281 281 281 279 277 274 271 268 265 263 261 261 257 254 250 250
270 302 309 312 314 316 317 315 313 314 311 307 306 306 305 304 303 302 302 301 299 296 295 293 292 290 287 287 288 287 284 281 278 276 273 270 268 266 265 265 263 255 249
284 296 304 308 311 313 313 311 311 310 308 305 304 304 304 303 303 303 301 300 299 298 296 295 294 292 291 291 292 291 290 285 282 279 277 274 271 273 269 269 269 269 266
287 297 304 306 307 309 308 307 306 305 304 303 303 305 305 304 304 303 302 301 301 299 297 296 295 294 293 295 296 297 293 287 284 282 279 277 275 272 272 268 265 263 264
295 300 303 304 305 306 308 307 304 304 303 303 305 307 306 305 304 303 303 303 301 299 297 297 297 295 295 297 298 298 294 287 285 282 277 275 273 274 275 273 267 266 264
297 301 304 304 303 307 310 306 304 304 305 307 306 305 304 303 302 302 302 301 300 298 298 296 296 295 295 298 300 300 293 290 289 286 280 277 276 277 278 273 268 268 268
299 303 304 303 304 309 309 303 303 304 308 308 305 303 302 301 301 301 300 301 299 298 297 297 295 295 294 298 299 300 296 291 290 288 286 281 282 282 283 280 271 269 271
301 305 304 304 306 308 307 304 305 308 309 307 304 303 302 302 300 299 300 300 299 299 299 299 299 297 297 297 299 301 300 299 296 292 290 286 288 287 286 283 276 276 276
300 302 303 304 305 307 308 305 307 309 308 305 303 303 303 301 300 300 300 300 299 297 298 297 297 298 299 299 300 302 302 301 297 289 290 293 294 293 289 285 284 281 272
301 304 305 303 305 309 307 304 306 308 306 304 304 304 303 302 301 299 297 296 296 296 296 296 296 298 298 298 300 301 302 300 297 294 293 293 290 286 282 283 282 274 265
301 303 301 301 302 306 306 306 307 308 305 303 303 303 302 301 301 299 296 295 290 290 294 294 295 298 298 298 303 305 303 301 298 300 292 287 286 281 278 275 271 266 262
301 300 299 300 302 306 306 307 309 307 304 303 303 302 302 300 300 300 298 291 288 294 295 291 292 293 293 300 304 306 306 307 306 304 293 291 288 287 286 283 277 267 260